Date,TemperatureHighF,TemperatureAvgF,TemperatureLowF,DewpointHighF,DewpointAvgF,DewpointLowF,HumidityHigh,HumidityAvg,HumidityLow,PressureMaxIn,PressureMinIn,WindSpeedMaxMPH,WindSpeedAvgMPH,GustSpeedMaxMPH,PrecipitationSumIn
2013-1-1,14,7,-10,8,3,-15,86,82,75,30.36,30.22,8,4,9,0.00
2013-1-2,8,-2,-13,3,-7,-18,84,79,71,30.41,30.35,10,4,11,0.00
2013-1-3,11,-4,-16,5,-9,-22,84,77,69,30.38,30.32,8,5,9,0.00
2013-1-4,18,-2,-15,6,-8,-21,83,75,55,30.33,30.26,9,5,11,0.00
2013-1-5,15,-2,-13,4,-8,-19,82,75,57,30.38,30.20,9,5,11,0.00
2013-1-6,26,12,-3,19,6,-8,86,77,62,30.20,29.99,10,6,13,0.00
2013-1-7,18,10,-7,16,6,-12,90,82,76,30.13,30.03,9,5,10,0.00
2013-1-8,26,22,18,24,19,16,93,91,90,30.26,30.02,4,-52,5,0.00
2013-1-9,34,29,24,30,26,21,95,91,80,30.26,29.72,11,-36,15,0.00
2013-1-10,37,29,19,32,25,15,93,85,75,29.72,29.50,28,13,37,0.00
2013-1-11,19,12,2,15,7,-6,88,79,63,29.90,29.49,17,9,20,0.00
2013-1-12,3,-8,-23,-2,-14,-30,82,75,68,30.03,29.90,10,5,11,0.00
2013-1-13,-2,-13,-27,-6,-18,-35,80,74,65,30.12,30.02,8,5,9,0.00
2013-1-14,0,0,-1,-5,-6,-6,80,78,76,30.26,30.21,6,6,8,0.00
2013-1-15,9,6,1,5,1,-4,82,78,75,30.54,30.28,5,3,7,0.00
2013-1-16,15,11,2,11,6,-1,85,82,78,30.59,30.53,6,4,8,0.00
2013-1-17,11,-4,-12,4,-9,-18,84,77,73,30.57,30.43,7,5,8,0.00
2013-1-18,14,2,-11,7,-4,-17,85,78,72,30.42,30.33,10,3,14,0.00
2013-1-19,15,-2,-11,8,-7,-16,81,77,70,30.46,30.37,8,5,9,0.00
2013-1-20,19,2,-7,9,-4,-12,84,78,64,30.42,30.37,8,4,9,0.00
2013-1-21,17,-2,-10,8,-7,-16,83,77,67,30.39,30.28,7,5,8,0.00
2013-1-22,18,1,-12,9,-4,-17,83,77,66,30.33,30.24,8,6,9,0.00
2013-1-23,27,14,1,17,8,-3,84,77,57,30.25,30.11,9,5,10,0.00
2013-1-24,34,26,13,32,21,10,94,83,65,30.24,30.09,15,7,21,0.00
2013-1-25,35,33,32,33,31,31,95,92,88,30.24,30.04,8,4,9,0.00
2013-1-26,36,34,33,35,32,31,95,94,90,30.04,29.75,11,4,12,0.00
2013-1-27,36,29,24,34,27,22,95,92,89,29.78,29.68,19,12,23,0.00
2013-1-28,24,20,6,22,17,2,92,86,76,29.86,29.76,18,10,22,0.00
2013-1-29,23,18,11,20,14,8,91,84,75,30.04,29.72,16,-2,20,0.00
2013-1-30,31,23,15,28,20,11,92,89,85,30.03,29.98,17,7,21,0.00
2013-1-31,33,31,29,29,28,26,92,86,81,30.23,30.14,21,11,27,0.00
2013-2-1,33,29,26,29,26,24,93,89,80,30.36,30.12,15,6,17,0.00
2013-2-2,31,26,17,27,24,13,94,88,78,30.47,30.33,9,4,10,0.00
2013-2-3,26,16,5,23,13,2,91,86,80,30.34,30.13,8,4,9,0.00
2013-2-4,28,27,24,27,25,21,94,93,89,30.15,30.07,7,1,8,0.00
2013-2-5,36,28,18,28,24,15,93,86,71,30.09,29.85,7,3,8,0.00
2013-2-6,27,21,6,25,18,2,94,89,84,30.14,29.86,11,5,12,0.00
2013-2-7,32,23,13,24,17,10,92,78,63,30.14,29.86,11,6,12,0.00
2013-2-8,38,29,18,27,20,13,81,69,59,29.87,29.64,18,9,21,0.00
2013-2-9,36,30,24,22,19,16,86,64,49,29.77,29.62,27,15,34,0.00
2013-2-10,30,21,5,19,10,-2,91,64,41,30.05,29.76,20,4,25,0.00
2013-2-11,19,6,-6,8,-2,-12,76,68,53,30.14,30.02,14,6,15,0.00
2013-2-12,25,21,12,20,14,6,83,77,66,30.24,30.14,8,4,10,0.00
2013-2-13,31,27,24,26,23,19,93,86,80,30.22,30.09,11,5,14,0.00
2013-2-14,32,24,14,26,21,8,94,87,73,30.32,30.11,17,7,23,0.00
2013-2-15,32,22,11,26,19,8,93,85,72,30.45,30.31,10,5,11,0.00
2013-2-16,36,29,20,26,23,17,89,79,61,30.39,29.90,10,5,11,0.00
2013-2-17,33,25,16,24,18,11,92,74,53,29.97,29.75,15,7,19,0.00
2013-2-18,28,20,11,20,14,5,90,78,67,30.07,29.89,10,7,12,0.00
2013-2-19,33,22,11,28,15,5,91,74,53,29.89,29.61,17,9,25,0.00
2013-2-20,35,26,17,28,22,14,91,82,63,29.74,29.59,17,9,20,0.00
2013-2-21,28,24,22,23,19,17,91,81,67,29.92,29.74,15,8,18,0.00
2013-2-22,30,24,12,24,19,9,92,83,68,30.02,29.83,18,10,26,0.00
2013-2-23,29,25,13,26,19,5,91,78,61,29.92,29.62,27,15,39,0.00
2013-2-24,26,9,-9,14,3,-14,86,75,56,30.17,29.91,14,7,17,0.00
2013-2-25,26,20,12,21,16,6,91,82,67,30.16,29.93,10,5,12,0.00
2013-2-26,25,16,-3,20,12,-8,91,84,73,30.25,29.94,12,5,14,0.00
2013-2-27,26,14,-5,17,9,-10,88,80,60,30.36,30.25,10,4,11,0.00
2013-2-28,28,21,9,23,16,6,91,81,58,30.43,30.30,7,4,9,0.00
2013-3-1,31,28,24,30,26,22,94,93,90,30.49,30.42,6,3,8,0.00
2013-3-2,38,32,29,33,30,27,95,89,79,30.47,30.02,7,3,8,0.00
2013-3-3,40,34,26,33,27,10,94,77,43,30.02,29.69,31,14,41,0.00
2013-3-4,28,20,10,13,8,4,75,62,42,30.21,29.92,13,6,16,0.00
2013-3-5,35,20,5,19,9,-1,78,64,38,30.21,29.92,11,8,14,0.00
2013-3-6,42,31,18,34,24,12,92,75,57,29.92,29.69,24,11,37,0.00
2013-3-7,36,31,20,26,22,16,84,70,51,30.01,29.86,19,7,28,0.00
2013-3-8,38,32,22,33,28,20,93,87,74,29.91,29.79,8,-3,10,0.00
2013-3-9,38,28,15,24,19,12,93,71,43,30.23,29.83,17,8,20,0.00
2013-3-10,38,26,10,28,19,6,85,74,60,30.33,30.14,12,6,14,0.00
2013-3-11,43,34,27,31,25,20,87,70,49,30.14,30.08,14,7,19,0.00
2013-3-12,40,29,15,30,22,11,87,74,59,30.26,30.14,12,6,13,0.00
2013-3-13,43,35,25,33,29,22,91,80,63,30.31,30.21,9,5,10,0.00
2013-3-14,49,37,27,35,30,24,91,75,52,30.27,30.11,10,6,12,0.00
2013-3-15,51,40,31,36,32,28,88,74,53,30.11,29.96,14,7,17,0.00
2013-3-16,50,39,28,34,28,21,90,67,33,29.98,29.71,29,8,39,0.00
2013-3-17,42,33,23,33,20,9,83,60,34,29.90,29.57,32,18,42,0.00
2013-3-18,41,28,16,22,17,11,83,63,41,29.98,29.82,25,10,33,0.00
2013-3-19,42,29,14,25,17,9,80,61,34,30.22,29.98,12,7,14,0.00
2013-3-20,40,33,25,36,27,14,94,77,55,30.11,29.63,19,8,27,0.00
2013-3-21,39,32,23,34,26,18,92,78,53,29.87,29.58,29,11,36,0.00
2013-3-22,31,24,15,22,17,12,91,76,52,29.95,29.82,12,5,16,0.00
2013-3-23,30,21,11,20,12,5,86,68,43,30.13,29.96,13,6,17,0.00
2013-3-24,32,22,12,16,11,5,86,64,33,30.19,30.12,13,6,15,0.00
2013-3-25,38,23,9,19,10,2,75,57,34,30.17,30.03,13,7,15,0.00
2013-3-26,46,34,22,34,24,13,91,67,54,30.03,29.91,15,8,18,0.00
2013-3-27,50,38,31,36,32,29,91,77,51,30.02,29.96,11,6,18,0.00
2013-3-28,58,42,31,36,28,21,86,63,24,30.08,30.01,11,6,13,0.00
2013-3-29,60,43,31,41,33,28,88,70,39,30.15,30.05,22,8,27,0.00
2013-3-30,57,43,31,37,28,-100,93,65,25,30.22,30.12,12,6,17,0.00
2013-3-31,62,43,27,38,27,17,84,59,18,30.15,29.95,12,6,14,0.00
2013-4-1,63,46,30,39,28,19,81,55,18,29.96,29.88,15,6,19,0.00
2013-4-2,65,48,33,38,31,18,91,58,16,30.06,29.95,11,6,15,0.00
2013-4-3,62,46,32,37,31,25,85,59,25,30.12,30.01,18,6,24,0.00
2013-4-4,66,48,33,41,33,30,86,61,27,30.07,29.85,27,8,39,0.00
2013-4-5,55,48,41,42,36,28,86,65,40,29.92,29.83,40,15,50,0.00
2013-4-6,55,44,33,39,33,29,86,64,42,29.95,29.86,28,14,35,0.00
2013-4-7,51,42,33,38,34,26,90,73,39,29.88,29.59,37,17,49,0.00
2013-4-8,40,35,28,33,26,11,93,69,46,29.74,29.55,38,19,49,0.00
2013-4-9,48,34,25,17,10,5,57,38,22,30.10,29.73,35,24,48,0.00
2013-4-10,54,38,20,36,20,13,79,52,27,30.12,29.80,17,9,22,0.00
2013-4-11,58,46,32,36,26,15,75,49,18,29.94,29.81,22,10,33,0.00
2013-4-12,54,41,26,33,20,11,89,49,19,30.01,29.71,18,9,24,0.00
2013-4-13,53,44,30,37,22,3,77,42,18,29.71,29.36,41,20,55,0.00
2013-4-14,44,33,21,15,8,2,63,37,18,29.78,29.68,18,10,28,0.00
2013-4-15,42,33,26,29,17,10,78,52,28,29.78,29.65,27,10,34,0.00
2013-4-16,42,32,24,11,8,6,56,37,24,30.00,29.74,28,21,36,0.00
2013-4-17,41,30,17,7,3,-1,64,34,18,30.18,30.00,22,15,40,0.00
2013-4-18,50,32,12,14,8,5,75,40,17,30.24,30.13,16,8,22,0.00
2013-4-19,48,41,34,39,28,16,89,60,39,30.13,29.87,22,15,28,0.00
2013-4-20,51,42,37,42,36,29,93,78,56,30.01,29.90,22,11,30,0.00
2013-4-21,56,45,36,33,28,22,82,54,31,30.07,29.81,34,15,45,0.00
2013-4-22,44,36,27,29,17,8,83,48,24,30.22,29.92,24,16,32,0.00
2013-4-23,47,33,16,18,9,1,70,40,14,30.24,30.06,17,8,19,0.00
2013-4-24,55,39,22,23,16,10,81,44,16,30.25,30.07,15,7,26,0.00
2013-4-25,64,46,23,23,16,8,79,37,11,30.07,29.91,20,10,33,0.00
2013-4-26,69,50,27,23,20,13,75,36,13,30.23,30.02,16,8,32,0.00
2013-4-27,74,55,32,28,24,17,75,36,14,30.25,29.98,24,13,31,0.00
2013-4-28,65,56,47,41,26,20,55,32,21,30.01,29.84,23,11,31,0.00
2013-4-29,63,51,40,29,24,16,51,35,19,29.90,29.59,50,23,63,0.00
2013-4-30,47,38,25,24,14,5,74,40,18,30.04,29.74,19,10,29,0.00
2013-5-1,52,39,25,17,9,-2,64,33,11,30.52,30.04,19,11,29,0.00
2013-5-2,60,41,18,15,9,5,68,33,11,30.61,30.34,14,7,21,0.00
2013-5-3,64,50,32,31,17,9,57,32,11,30.34,30.02,18,7,24,0.00
2013-5-4,61,51,42,38,31,27,62,47,27,30.05,29.99,29,14,35,0.00
2013-5-5,68,52,39,38,31,25,68,47,20,30.04,29.92,27,12,36,0.00
2013-5-6,72,55,37,37,31,22,80,46,15,29.97,29.85,17,9,24,0.00
2013-5-7,71,52,37,44,37,30,82,59,23,30.00,29.86,29,8,38,0.00
2013-5-8,75,56,34,39,31,16,90,50,11,30.11,29.99,19,8,27,0.00
2013-5-9,71,55,37,39,35,30,81,52,23,30.17,30.09,28,8,36,0.00
2013-5-10,77,57,36,37,28,-100,83,42,11,30.28,30.16,18,8,23,0.00
2013-5-11,77,59,40,39,31,-100,72,40,14,30.32,30.19,15,8,24,0.00
2013-5-12,83,65,42,42,36,30,78,40,16,30.26,30.06,17,8,24,0.00
2013-5-13,87,68,47,44,35,29,72,34,12,30.14,29.91,30,14,38,0.00
2013-5-14,76,65,44,41,36,22,73,37,14,30.04,29.85,30,17,43,0.00
2013-5-15,78,61,39,41,36,32,79,43,20,30.00,29.80,21,10,26,0.00
2013-5-16,71,57,50,44,26,-100,78,48,27,29.88,29.79,24,13,33,0.00
2013-5-17,60,52,49,48,41,-100,91,75,50,29.89,29.86,20,9,26,0.00
2013-5-20,64,59,49,45,41,35,79,52,34,30.15,30.07,14,6,19,0.00
2013-5-21,70,55,38,44,38,31,88,57,24,30.09,29.74,16,7,27,0.00
2013-5-22,60,52,45,44,34,22,76,51,32,29.88,29.67,22,13,27,0.00
2013-5-23,63,50,39,36,30,25,75,50,29,29.93,29.76,23,9,31,0.00
2013-5-24,66,53,41,32,24,17,57,35,17,30.05,29.90,26,14,34,0.00
2013-5-25,70,54,37,35,30,22,74,43,17,29.93,29.88,21,10,25,0.00
2013-5-26,70,55,39,42,35,28,79,49,21,29.93,29.85,17,8,25,0.00
2013-5-27,64,54,45,43,35,25,84,51,26,29.98,29.84,22,13,28,0.00
2013-5-28,59,52,46,46,41,31,85,67,40,29.87,29.74,17,8,22,0.00
2013-5-29,59,50,45,47,43,35,92,77,46,29.79,29.70,21,10,29,0.00
2013-5-30,60,51,44,42,38,30,85,62,32,29.97,29.76,18,9,28,0.00
2013-5-31,65,53,39,41,30,23,78,45,20,30.23,29.96,21,8,27,0.00
2013-6-1,70,54,35,41,32,25,84,49,20,30.26,30.03,12,7,16,0.00
2013-6-2,81,61,39,42,37,29,87,48,15,30.03,29.65,28,12,40,0.00
2013-6-3,67,55,39,40,31,27,70,42,24,30.00,29.84,19,8,26,0.00
2013-6-4,69,56,44,39,34,26,81,47,22,30.15,29.98,15,8,19,0.00
2013-6-5,75,57,37,46,35,29,82,48,21,30.17,30.04,12,7,16,0.00
2013-6-6,79,62,43,48,40,32,82,50,19,30.11,30.03,13,6,16,0.00
2013-6-7,83,64,43,47,43,38,85,52,23,30.05,29.78,20,9,27,0.00
2013-6-8,78,69,54,46,36,29,57,32,18,30.03,29.84,21,13,27,0.00
2013-6-9,85,68,44,44,40,29,81,42,18,30.04,29.81,25,12,37,0.00
2013-6-10,88,71,51,50,43,27,78,41,15,29.87,29.71,20,10,25,0.00
2013-6-11,80,69,53,47,39,24,61,34,16,29.98,29.72,31,14,41,0.00
2013-6-12,71,60,53,55,49,42,87,67,36,30.11,29.97,22,8,29,0.05
2013-6-13,73,61,51,56,43,31,84,55,21,30.06,29.88,30,14,45,0.04
2013-6-14,63,53,44,38,33,27,76,47,26,30.18,30.00,26,15,33,0.00
2013-6-15,75,55,35,43,31,20,82,49,13,30.16,30.02,13,7,17,0.00
2013-6-16,85,62,39,42,34,22,78,43,10,30.09,29.99,18,8,23,0.00
2013-6-17,86,66,45,47,39,25,75,43,11,30.10,29.96,16,8,21,0.00
2013-6-18,87,66,46,47,41,28,75,44,12,29.97,29.67,22,9,29,0.00
2013-6-19,72,59,48,44,38,32,69,46,25,29.98,29.60,34,16,47,0.02
2013-6-28,90,69,54,58,51,40,77,57,17,30.29,30.17,9,6,10,0.00
2013-7-10,-200,0,200,-100,-100,-100,0,0,100,30.14,30.13,5,4,6,0.00
2013-7-13,67,67,67,44,44,44,44,44,44,29.99,29.99,10,10,16,0.00
2013-7-14,82,82,82,46,46,46,28,28,28,30.16,30.16,8,8,13,0.00
2013-11-9,-200,0,200,-100,-100,-100,0,0,100,30.18,30.18,9,9,10,0.00
2013-11-11,32,32,32,29,29,29,88,88,88,30.24,30.24,5,5,6,0.00
2013-11-30,-200,0,200,-100,-100,-100,0,0,100,30.24,30.24,4,4,7,0.00
2013-12-7,-200,0,200,-100,-100,-100,0,0,100,29.74,29.74,5,5,6,0.00